Showing default

SPACEMOBILE-008, 69589

Orbit data source: Space-Track

SPACEMOBILE-008, 69589 is a payload satellite owned by AST & Science (US) in LEO that was launched on Wed, 17 Jun 2026 UTC via an FALCON 9 launch vehicle from the Air Force Eastern Test Range (AFETR). Payload-class satellites include a variety of spacecraft equipped with specific instruments for various scientific and technological missions. These include communications satellites like Starlink; space stations such as the ISS; scientific satellites like the Hubble; Earth observation satellites from companies like Planet Labs, Umbra, and HawkEye 360; GPS; miniature CubeSats for education and research; and military/defense satellites.

Loading next visibility...
Identifier
69589, 2026-139A
Orbit
LEO
Country
Flag of USUS
Related business
Manufacturer
AST & Science
Mission
Operational spacecraft
Bus & Motor
BB BLOCK-2, EP
Mass
5,850 kg wet, 5,830 kg dry
Launch date (UTC)
2026-06-17 (1 month ago)
Launch vehicle
FALCON 9
Launch site
Air Force Eastern Test Range (AFETR)
Object type
Payload
Rocket body
Debris
Shape & HBR
Unknown shape, 5.0 m
Radar Cross Section
Large (>1 m²)

Expand to show TLE details & history
Last TLE update: 18 hours ago

TLE from 18 hours ago
0 SPACEMOBILE-008
1 69589U 26139A   26202.42904412  .00000319  00000-0  34924-4 0  9995
2 69589  52.9953 107.1053 0005298  71.2526 288.9040 15.12809290  5166
Epoch: 2026-07-21T10:17Z
TLE epoch observation values (Epoch: 2026-07-21T10:17:49.411Z)
Latitude
-0.00001°
Longitude
13.45055°
Altitude
527.329 km
Speed
7.601 km/s
True Right ascension
07h 08m 25s
True Declination
0° 00' 00"
Sunlit
Object was in daylight at epoch
Visualization orbit readout
Latitude
Unknown
Longitude
Unknown
Altitude
Unknown
Speed
Unknown
Apparent Right ascension
Unknown
Apparent Declination
Unknown
Sunlit
N/A
Visualization observer readout
Local Sidereal Time
17:38:58
Azimuth
Unknown
Elevation
Unknown
Doppler factor
Unknown
Orbital elements
Apogee altitude
531.577 km
Perigee altitude
524.26 km
Semi-major axis
6,906.055 km
Eccentricity
0.00053
Inclination
52.9953°
RAAN
107.1053°
Arg. of periapsis
71.2526°
True anomaly
288.84655°
Mean anomaly
288.904°
Eccentric anomaly
288.87528°
Mean motion
3.7818 °/min
Orbital period
95.19 mins
BSTAR
0.000034924
Loading maneuver chart data...
Computing Atmospheric mass density...
Loading historical data...
Loading historical data...
Loading historical data...
Loading historical data...
Loading historical data...
Loading historical data...
Loading historical data...
Other satellites on launch #139 in the year 2026 (2026-06-17 UTC)

Documentation

Showing up to 5 results
|